Weather in Vakhrushi

Russia / Kirov Oblast     57°29′15″N   50°17′57″E
temp.,
°C
wind,
m/s
gust,
m/s
humid.,
%
clouds,
%
prec.,
mm/h
press.,
hPa
HPBL,
m
13 may, thu
thu1300:00+15ese11764 0.0 102611
03:00+14e00790 0.0 102710
06:00+17ese12673 0.0 1027110
09:00+23sse354527 0.0 1026651
12:00+26s45355 0.0 10252101
15:00+24ssw464255 0.0 1024858
18:00+21s235690 0.0 102353
21:00+18ese396399 0.0 1022187
14 may, fri
fri1400:00+16sse3136963 0.0 1022296
03:00+15sse31281100 0.4 1022280
06:00+17s310785 0.4 1022338
09:00+21ssw4654100 0.4 1021715
12:00+24ssw4650100 0.0 10211141
15:00+25sw4649100 0.0 10201659
18:00+22s2464100 0.0 1019109
21:00+17ssw258649 0.0 101981
15 may, sat
sat1500:00+16sw228996 0.1 101933
03:00+15s2290100 0.2 102015
06:00+18s237296 0.0 1019140
09:00+23s4756100 0.0 1018624
12:00+26s584296 0.0 1018989
15:00+27ssw5103773 0.0 10171433
18:00+24ssw51151100 0.0 1016549
21:00+20ssw5155993 0.0 1016397
16 may, sun
sun1600:00+17ssw3116299 0.0 1016244
03:00+14s39685 0.0 1016159
06:00+18s4125980 0.0 1016324
09:00+24ssw61243100 0.0 1015854
12:00+28ssw7123411 0.0 10142264
15:00+28ssw7133746 0.0 10132773
18:00+25ssw5114940 0.0 1012735
21:00+18sw38761 0.1 1013160
17 may, mon
mon1700:00+17sw311900 1.4 1014306
03:00+14wsw38955 1.4 1015192
06:00+16wsw387949 0.0 1016367
09:00+21wsw475465 0.0 10171137
12:00+23w574576 0.0 10161659
15:00+24w574499 0.0 10161839
18:00+21wsw3757100 0.0 1016290
21:00+16nne247838 0.0 101864